Weather History for Carbondale, IL

Change the Weather History Date:

Saturday, September 17, 2011

  Actual Average Record
Temperature  
Mean Temperature 62 °F -  
Max Temperature 70 °F 79 °F 102 °F (1927)
Min Temperature 55 °F 56 °F 37 °F (1937)
Degree Days  
Heating Degree Days 3    
Growing Degree Days 12 (Base 50)    
Moisture  
Dew Point 52 °F    
Average Humidity 72    
Maximum Humidity 87    
Minimum Humidity 47    
Precipitation  
Precipitation 0.01 in - - ()
Sea Level Pressure  
Sea Level Pressure 30.20 in    
Wind  
Wind Speed 1 mph (East)    
Max Wind Speed 5 mph    
Max Gust Speed -    
Visibility 10 miles    
Events Rain    
Averages and records for this station are not official NWS values.
T = Trace of Precipitation, MM = Missing Value Source: NWS Daily Summary

Daily Weather History Graph

Daily Weather History Graph

Search for Another Location

Airport:

Trip Planner

Search our weather history database for the weather conditions in past years. The results will help you decide how hot, cold, wet, or windy it might be!

Date:

Astronomy

Sep. 17, 2011 Rise Set
Actual Time 6:40 AM CDT 7:02 PM CDT
Civil Twilight 6:14 AM CDT 7:28 PM CDT
Nautical Twilight 5:43 AM CDT 7:59 PM CDT
Astronomical Twilight 5:11 AM CDT 8:30 PM CDT
Moon 9:39 PM CDT (9/17) 11:35 AM CDT (9/17)
Length of Visible Light 13h 14m
Length of Day
12h 21m
Waning Gibbous, 76% of the Moon is Illuminated
Sep 17
Waning Gibbous
Sep 20
Last Quarter
Sep 27
New
Oct 3
First Quarter
Oct 11
Full

Hourly Weather History & Observations

Time (CDT) Temp. Dew Point Humidity Pressure Visibility Wind Dir Wind Speed Gust Speed Precip Events Conditions
12:52 AM 55.9 °F 52.0 °F 87% 30.21 in 10.0 mi Calm Calm - N/A   Scattered Clouds
2:52 AM 55.9 °F 51.1 °F 84% 30.18 in 10.0 mi Calm Calm - N/A   Mostly Cloudy
3:52 AM 55.9 °F 48.9 °F 77% 30.18 in 10.0 mi Calm Calm - N/A   Overcast
4:52 AM 55.9 °F 51.1 °F 84% 30.19 in 10.0 mi Calm Calm - N/A   Overcast
5:52 AM 55.9 °F 50.0 °F 80% 30.20 in 10.0 mi Calm Calm - N/A   Overcast
6:52 AM 57.0 °F 48.0 °F 72% 30.22 in 10.0 mi Calm Calm - N/A   Overcast
7:52 AM 57.0 °F 48.9 °F 74% 30.24 in 10.0 mi Calm Calm - N/A   Overcast
8:52 AM 57.0 °F 50.0 °F 77% 30.25 in 10.0 mi Calm Calm - N/A   Overcast
9:52 AM 59.0 °F 51.1 °F 75% 30.25 in 10.0 mi Calm Calm - N/A   Overcast
10:52 AM 64.9 °F 50.0 °F 58% 30.25 in 10.0 mi Calm Calm - N/A   Overcast
11:52 AM 64.9 °F 50.0 °F 58% 30.25 in 10.0 mi Calm Calm - N/A   Overcast
12:52 PM 66.9 °F 51.1 °F 57% 30.22 in 10.0 mi Calm Calm - N/A   Overcast
1:52 PM 68.0 °F 46.9 °F 47% 30.21 in 10.0 mi SE 3.5 mph - N/A   Overcast
3:52 PM 69.1 °F 52.0 °F 54% 30.17 in 10.0 mi East 4.6 mph - 0.00 in   Mostly Cloudy
4:52 PM 69.1 °F 48.9 °F 49% 30.17 in 10.0 mi Calm Calm - 0.00 in   Overcast
5:52 PM 66.9 °F 55.0 °F 66% 30.17 in 10.0 mi West 4.6 mph - N/A   Overcast
6:52 PM 64.9 °F 57.0 °F 75% 30.14 in 10.0 mi ENE 3.5 mph - N/A   Scattered Clouds
7:52 PM 63.0 °F 57.9 °F 84% 30.14 in 10.0 mi East 4.6 mph - N/A   Clear
8:52 PM 62.1 °F 57.0 °F 84% 30.16 in 10.0 mi Calm Calm - N/A   Mostly Cloudy
9:52 PM 62.1 °F 57.9 °F 86% 30.17 in 10.0 mi Calm Calm - 0.00 in Rain Light Rain
11:52 PM 62.1 °F 57.9 °F 86% 30.15 in 10.0 mi ENE 3.5 mph - 0.01 in   Overcast